Vorticity
5 5 5 5 4 5 5 6 6 7 5 6 10 14 16 21 21 19 16 11 9 9 12 15 15 11 9 7 8 8 8 5 10 12 7 8 4 7
16 18 18 15 11 11 11 10 7 6 7 4 10 10 7 8 12 13 15 13 14 15 13 13 12 12 14 16 16 14 10 6 6 7 13 11 14 14
11 13 13 13 13 12 11 13 14 11 7 4 6 10 7 4 2 6 12 18 17 18 22 16 13 16 16 11 8 8 12 13 17 15 13 8 3 5
9 6 7 9 10 11 11 10 15 17 13 7 5 7 10 7 4 3 11 14 15 8 6 6 6 11 14 6 9 10 14 12 14 16 16 12 20 22
6 6 7 7 6 6 8 11 12 18 15 11 8 6 9 11 8 5 10 15 15 11 22 0 4 7 18 11 17 23 18 16 13 10 13 16 5 1
6 5 6 6 8 7 6 6 9 11 16 14 13 11 10 10 11 7 12 15 8 15 12 11 8 -5 6 20 14 9 18 12 16 16 14 16 18 16
7 9 7 5 6 7 7 7 7 8 10 12 14 11 11 12 13 13 12 12 14 14 18 1 11 23 10 -2 16 20 12 11 23 14 11 11 11 16
8 7 10 9 7 7 7 6 6 7 8 10 11 12 12 15 15 16 17 17 15 10 10 -4 1 11 22 6 8 21 30 17 9 31 21 7 13 7
10 8 8 9 11 10 8 7 7 9 9 8 9 10 13 13 13 20 22 25 7 5 -1 14 7 8 -6 17 -9 18 15 6 19 2 11 15 11 19
17 13 9 11 11 12 9 9 9 9 10 10 9 7 11 9 11 19 16 19 4 3 17 11 6 14 -4 12 28 4 8 5 38 34 30 26 -6 1
15 18 16 11 9 12 12 9 10 10 9 9 10 7 12 17 8 20 16 6 7 6 6 8 17 4 10 4 33 15 11 -3 11 -1 15 21 -4 -6
14 16 15 17 10 9 11 11 10 10 10 10 10 9 5 9 10 7 10 20 20 5 5 8 8 -5 17 12 7 2 8 -3 4 5 3 6 19 19
12 16 19 15 17 10 9 10 11 9 9 11 11 11 8 11 1 5 11 30 22 23 12 39 6 19 0 20 9 5 8 16 3 9 7 8 16 7
17 15 17 19 19 14 10 11 11 9 10 10 11 11 11 7 2 7 18 2 25 28 7 14 19 13 13 14 14 7 6 2 13 5 -3 15 16 4
17 17 20 15 17 17 12 11 11 9 10 10 12 12 12 13 4 15 12 -1 4 15 20 33 6 14 12 3 -2 12 9 16 -0 2 4 6 18 13
14 13 17 16 16 17 15 11 10 9 7 11 11 11 13 12 13 11 16 4 5 -4 9 2 3 7 33 7 8 21 2 9 7 2 8 10 22 19
18 16 16 18 14 16 15 13 10 8 9 10 10 12 12 13 13 12 16 7 1 -3 13 -1 10 2 -5 11 12 3 22 -7 17 21 20 13 11 11
16 22 15 19 15 15 15 12 12 10 9 11 10 10 11 13 14 14 12 17 11 19 15 11 10 14 8 9 26 12 9 16 11 9 6 8 11 10
17 24 15 17 16 13 16 13 10 9 14 5 13 9 14 14 14 14 14 13 12 12 13 14 13 11 15 15 10 4 -1 0 9 11 11 10 8 9
17 23 19 18 17 11 14 10 13 11 13 7 9 7 12 13 15 14 14 13 13 12 11 11 11 11 10 10 11 20 15 11 9 9 8 8 7 7
22 20 17 17 22 13 7 13 11 9 9 16 13 18 8 14 15 14 14 12 12 11 10 9 8 8 8 8 9 9 8 8 8 8 8 8 8 9
21 19 18 18 21 14 4 19 15 10 6 13 17 15 9 14 13 13 12 11 11 11 10 9 9 9 9 8 8 8 9 9 9 9 9 9 8 10
20 17 19 22 14 11 13 9 19 15 14 9 23 13 11 12 13 12 11 11 11 11 10 12 11 11 11 11 11 10 10 10 9 10 10 9 9 9
Height
3045 3045 3043 3043 3042 3042 3040 3039 3037 3035 3037 3038 3039 3042 3041 3040 3039 3039 3039 3039 3040 3041 3042 3044 3045 3047 3048 3050 3052 3054 3055 3057 3059 3061 3064 3067 3070 3072
3034 3034 3034 3034 3032 3032 3031 3030 3029 3027 3024 3028 3030 3030 3031 3032 3032 3031 3031 3030 3029 3030 3030 3032 3035 3036 3037 3037 3038 3040 3042 3044 3046 3049 3051 3054 3057 3060
3026 3024 3024 3023 3023 3022 3021 3020 3019 3018 3014 3017 3019 3021 3022 3023 3024 3021 3020 3019 3020 3021 3021 3022 3023 3025 3026 3026 3026 3027 3028 3030 3032 3035 3038 3042 3046 3048
3018 3016 3016 3014 3014 3013 3012 3011 3009 3008 3005 3004 3008 3011 3011 3013 3014 3012 3012 3010 3010 3012 3012 3013 3014 3015 3015 3016 3015 3015 3016 3017 3019 3022 3024 3029 3032 3036
3007 3006 3006 3005 3005 3003 3002 3001 2999 2997 2996 2993 2996 2999 3000 3001 3001 3002 3002 3001 3001 3002 3002 3003 3004 3004 3004 3004 3003 3004 3005 3005 3007 3009 3012 3016 3020 3024
2995 2995 2994 2994 2994 2993 2991 2991 2989 2988 2987 2985 2986 2988 2987 2990 2989 2990 2991 2990 2992 2993 2993 2994 2994 2994 2994 2993 2994 2994 2994 2995 2996 2998 3000 3004 3008 3012
2982 2982 2983 2983 2983 2982 2981 2981 2979 2978 2978 2976 2978 2977 2978 2978 2977 2979 2979 2980 2982 2983 2984 2985 2984 2985 2985 2985 2984 2984 2984 2985 2986 2988 2990 2993 2996 2999
2967 2969 2970 2970 2971 2970 2970 2970 2969 2969 2969 2967 2968 2968 2970 2968 2967 2968 2968 2970 2972 2975 2975 2976 2975 2976 2976 2976 2976 2975 2973 2975 2976 2976 2978 2981 2985 2987
2953 2955 2956 2958 2958 2958 2958 2958 2959 2959 2958 2958 2958 2959 2959 2958 2957 2958 2959 2959 2960 2965 2965 2965 2967 2967 2968 2967 2968 2967 2966 2967 2968 2968 2969 2971 2972 2974
2939 2942 2942 2944 2946 2946 2946 2947 2949 2949 2949 2948 2948 2949 2949 2949 2948 2948 2949 2950 2953 2955 2956 2956 2957 2959 2959 2959 2958 2959 2959 2960 2958 2959 2960 2961 2963 2963
2926 2927 2929 2931 2933 2934 2933 2935 2937 2939 2938 2939 2940 2940 2940 2942 2941 2940 2941 2941 2943 2945 2947 2946 2949 2950 2951 2951 2950 2952 2951 2952 2952 2953 2954 2955 2956 2957
2914 2914 2916 2919 2921 2921 2921 2924 2925 2930 2928 2929 2930 2931 2932 2932 2933 2933 2933 2932 2932 2933 2937 2937 2939 2941 2941 2942 2944 2944 2944 2946 2947 2948 2948 2949 2949 2951
2900 2902 2904 2906 2906 2908 2909 2911 2916 2918 2918 2919 2920 2921 2922 2924 2924 2924 2923 2923 2923 2923 2926 2926 2928 2931 2932 2933 2936 2936 2937 2939 2940 2941 2942 2943 2944 2945
2889 2889 2891 2892 2892 2894 2897 2901 2904 2905 2907 2908 2910 2912 2913 2914 2916 2916 2916 2916 2916 2916 2916 2916 2918 2921 2924 2925 2927 2930 2931 2932 2933 2934 2936 2937 2938 2939
2877 2878 2878 2880 2880 2881 2885 2890 2892 2894 2897 2898 2900 2902 2903 2905 2907 2908 2909 2909 2910 2909 2908 2909 2911 2913 2915 2917 2919 2922 2923 2925 2927 2928 2929 2930 2931 2933
2866 2865 2866 2868 2869 2871 2874 2878 2881 2883 2886 2889 2891 2892 2894 2896 2897 2899 2901 2902 2903 2904 2904 2904 2906 2907 2908 2910 2912 2913 2916 2918 2920 2921 2923 2924 2926 2927
2856 2854 2854 2856 2859 2860 2863 2867 2870 2873 2876 2879 2881 2883 2885 2887 2889 2890 2892 2894 2895 2896 2898 2899 2901 2901 2902 2904 2905 2907 2909 2911 2913 2915 2917 2918 2920 2922
2845 2843 2843 2845 2848 2850 2853 2857 2860 2864 2866 2869 2872 2874 2876 2878 2880 2882 2884 2885 2887 2889 2890 2893 2894 2895 2897 2898 2900 2901 2904 2906 2908 2910 2911 2914 2915 2917
2834 2833 2832 2835 2837 2841 2845 2848 2851 2854 2857 2860 2863 2865 2868 2870 2871 2873 2876 2878 2880 2882 2884 2885 2887 2890 2891 2894 2895 2897 2899 2900 2903 2904 2906 2909 2910 2912
2824 2822 2822 2825 2827 2831 2835 2838 2841 2845 2848 2851 2853 2857 2859 2862 2864 2866 2869 2870 2873 2876 2878 2880 2882 2884 2886 2888 2890 2892 2893 2896 2898 2900 2902 2903 2905 2907
2813 2812 2813 2815 2818 2822 2826 2830 2833 2836 2839 2842 2844 2847 2851 2854 2856 2858 2861 2863 2867 2869 2871 2873 2876 2879 2881 2883 2885 2887 2888 2890 2892 2894 2895 2897 2898 2900
2802 2802 2803 2806 2809 2814 2817 2820 2823 2827 2831 2833 2836 2840 2843 2847 2849 2852 2854 2857 2860 2863 2865 2867 2870 2872 2875 2877 2879 2880 2882 2884 2885 2887 2889 2890 2891 2892
2792 2793 2795 2797 2801 2806 2809 2812 2815 2819 2823 2826 2829 2832 2836 2839 2843 2845 2848 2851 2854 2857 2859 2862 2864 2866 2868 2870 2873 2874 2875 2876 2878 2879 2881 2881 2882 2883